GFSSW_925_thetae_000.txt.gz
Theta_e
306 306 306 306 307 307 307 307 307 307 307 308 310 312 313 315 317 318 322 323 322 325 325 324 323 324 325 324 326 322 322 319 319 318 318 315 316 317 317 318 319 318 317 315 315
306 306 307 307 307 307 308 308 308 308 308 308 308 310 312 316 317 320 323 323 323 323 323 325 324 324 323 324 326 321 318 320 318 316 315 315 316 317 318 319 319 319 315 316 316
307 307 307 307 307 307 308 308 308 308 308 308 308 309 312 316 324 322 323 323 323 325 324 322 324 324 325 325 325 324 321 318 318 316 314 316 317 317 319 319 318 318 315 314 314
307 307 307 307 307 307 308 308 308 308 308 308 308 308 312 317 321 324 325 324 324 325 324 323 323 322 322 322 323 323 319 318 318 317 317 317 316 318 319 318 317 317 314 314 313
307 307 307 307 307 307 307 308 308 308 308 308 308 309 315 322 319 322 322 323 324 324 323 322 323 322 323 323 321 319 319 318 317 315 317 316 317 318 317 317 317 315 314 313 313
306 307 307 307 307 307 308 308 308 309 309 309 309 309 317 321 320 321 322 324 323 322 323 322 322 322 323 322 320 319 319 317 316 316 316 316 317 317 318 318 317 315 313 313 313
304 305 306 307 307 307 308 308 308 309 309 309 312 309 322 318 321 323 322 323 322 322 322 323 324 323 322 322 320 319 319 318 316 316 317 315 317 316 318 317 318 315 313 314 314
302 303 303 305 306 307 307 308 309 309 309 314 314 315 321 316 317 319 324 322 321 322 323 324 323 320 321 321 321 321 317 318 316 316 317 315 315 317 317 317 317 315 314 314 314
301 301 302 303 304 306 307 308 309 309 312 316 311 322 322 319 320 321 322 322 321 323 324 324 321 320 319 320 319 319 318 317 318 316 317 315 315 319 316 317 318 315 314 314 314
299 299 300 301 304 305 306 308 310 313 316 315 318 318 315 319 321 322 322 323 323 323 323 322 318 319 316 316 320 321 318 318 319 317 318 315 314 317 317 318 319 314 314 315 315
302 298 298 299 302 304 305 308 314 321 321 316 315 320 321 317 321 323 323 323 323 322 323 322 321 320 318 317 319 321 321 320 320 318 318 316 315 316 316 319 317 314 314 314 314
302 302 300 298 299 304 303 308 312 314 314 317 319 317 318 320 322 323 324 323 323 322 322 322 321 321 320 320 320 321 321 321 319 318 316 316 317 317 318 319 318 315 314 314 313
302 303 302 299 298 303 308 312 313 313 315 318 318 319 319 318 319 320 322 322 323 322 321 322 322 322 322 320 320 319 320 321 320 319 318 318 318 320 319 320 321 315 314 313 313
303 303 304 301 302 304 308 312 313 313 318 320 320 319 320 318 319 321 323 322 321 322 321 321 321 322 322 320 319 318 319 321 322 320 319 319 319 319 320 320 321 317 314 313 313
303 302 303 303 302 300 308 309 313 316 315 318 318 319 319 319 319 320 322 322 322 322 322 323 322 322 323 322 319 318 318 318 321 319 318 320 320 321 320 323 325 318 315 313 313
304 303 303 302 302 301 306 310 314 319 321 318 317 319 319 320 321 319 322 322 321 322 322 322 321 322 322 319 318 318 320 321 319 318 321 319 320 320 321 322 324 319 316 314 314
304 303 303 303 303 305 305 310 317 320 316 316 315 318 318 319 320 320 320 322 322 323 323 322 322 321 317 317 318 320 319 321 322 321 323 321 322 322 321 320 324 320 316 315 315
304 303 303 302 302 302 304 314 319 315 315 316 316 317 317 318 318 320 320 321 320 320 322 323 324 322 321 317 317 317 319 322 324 324 324 329 328 323 328 321 323 321 317 315 313
305 304 304 302 301 302 305 318 315 315 314 316 316 317 316 317 318 319 319 319 318 319 322 322 323 322 321 319 317 318 321 318 320 324 324 330 332 330 329 325 324 320 316 315 314
305 303 303 304 304 304 307 317 316 315 316 314 313 316 318 317 317 317 319 319 319 319 320 321 323 321 323 328 326 317 319 323 319 324 326 326 337 334 331 328 324 319 317 315 314
304 304 304 304 304 302 308 314 315 315 314 315 314 315 316 317 317 317 318 319 318 319 321 321 321 324 329 329 324 328 330 330 327 324 325 325 335 333 332 328 324 320 317 315 315
303 306 305 304 304 303 303 310 313 313 313 315 315 316 316 316 319 319 320 318 318 319 321 320 320 323 333 332 331 331 334 334 335 333 328 332 332 332 330 326 324 320 318 315 316
305 303 305 305 305 303 302 306 311 314 314 313 313 314 316 316 317 319 320 321 320 319 320 320 321 333 332 333 330 328 332 335 334 332 333 334 331 330 330 328 324 320 318 316 316
306 307 303 306 305 302 301 302 306 309 311 313 313 313 313 314 315 318 319 322 322 321 326 323 321 325 328 329 332 332 330 331 332 333 332 331 332 331 332 329 328 322 318 317 316
306 308 305 308 308 307 304 304 303 305 309 311 312 313 313 314 316 315 316 318 320 327 324 321 323 325 324 327 331 330 330 330 332 330 332 331 334 330 330 331 330 325 320 317 316
302 308 303 307 307 307 308 308 308 308 305 308 310 311 312 314 314 315 318 321 322 325 326 326 327 332 338 331 332 333 331 330 330 329 329 330 331 328 329 329 328 326 322 319 317
299 304 306 306 307 309 308 308 309 309 309 309 308 311 312 313 314 314 312 316 322 326 333 326 327 327 337 334 334 336 333 331 330 328 328 329 327 328 329 329 327 325 323 321 318

GFSSW_925_thetae_003.txt.gz
Theta_e
306 306 307 307 307 307 307 308 308 308 308 308 308 308 309 313 315 316 319 320 322 322 326 326 325 324 323 322 324 319 324 323 319 315 317 314 314 314 316 317 317 316 315 314 314
307 307 307 307 307 307 307 308 308 308 308 308 308 308 309 312 315 318 319 320 322 322 324 323 322 322 321 323 323 321 318 320 315 315 314 313 314 315 317 318 317 314 314 314 314
306 307 307 307 307 307 307 308 308 308 308 308 308 308 308 312 322 320 319 321 322 323 322 324 322 322 323 322 323 323 325 318 317 315 313 313 315 316 317 318 316 314 313 313 313
306 307 307 307 307 307 307 307 308 308 308 308 308 308 308 314 319 321 323 323 323 322 323 322 320 320 320 321 320 323 322 318 317 316 314 314 315 318 318 317 316 314 313 313 313
305 306 306 306 306 307 307 307 308 308 308 308 308 308 310 320 318 320 320 323 323 322 324 320 321 321 322 322 321 319 319 317 316 314 315 315 316 317 317 316 315 313 313 313 312
303 304 304 304 305 306 307 307 308 308 308 308 308 308 314 320 317 317 319 321 323 323 323 321 321 321 322 322 320 319 317 317 315 314 314 315 316 317 316 316 314 313 312 312 313
302 302 303 303 304 305 306 306 307 308 308 308 309 310 319 313 316 322 322 322 323 324 322 322 322 323 322 322 319 318 319 317 316 314 316 314 316 315 316 316 314 313 312 313 312
302 301 301 301 303 304 305 306 306 307 308 309 315 315 316 313 314 314 318 322 323 323 322 322 322 320 319 319 319 320 317 318 317 315 316 315 316 315 316 316 314 313 313 313 313
304 302 299 299 300 301 304 306 307 308 310 316 313 319 317 316 318 315 318 320 322 322 322 322 321 318 318 318 318 318 320 317 318 315 316 315 316 316 316 316 315 313 313 313 314
304 302 301 298 298 298 303 307 309 313 318 311 317 315 311 314 321 318 320 321 321 321 322 321 317 319 315 317 321 319 320 318 318 317 315 314 314 315 316 315 315 313 313 314 314
304 303 302 301 299 299 301 306 310 319 320 314 313 314 318 317 316 321 322 322 322 322 321 320 319 319 319 318 318 319 320 321 320 318 317 316 315 315 317 316 314 313 313 314 314
305 303 302 302 302 301 299 305 309 309 311 313 317 315 316 316 316 319 322 322 321 322 321 321 320 320 319 319 319 318 319 319 318 318 316 317 317 315 316 317 315 313 313 313 313
305 304 303 302 302 300 303 307 309 310 313 316 315 317 317 317 317 317 322 321 322 322 320 322 322 321 320 321 320 319 319 319 319 319 316 316 316 318 317 317 316 313 313 312 312
304 304 303 302 302 301 304 307 309 309 315 316 318 317 317 317 318 318 319 321 320 323 320 320 320 321 321 321 319 319 318 318 320 318 317 316 317 318 318 318 318 314 312 312 312
304 304 303 302 303 301 303 305 309 310 314 314 317 318 316 317 318 318 320 321 321 321 320 322 320 321 321 322 320 321 320 318 319 319 317 319 318 318 319 320 322 314 313 311 311
304 304 303 303 302 302 301 305 310 316 317 316 316 318 317 317 318 318 319 320 321 320 320 321 319 320 321 321 320 320 317 318 317 317 318 317 318 318 321 321 322 316 314 312 311
306 304 304 303 301 303 302 307 316 318 314 316 314 317 317 317 318 318 318 320 321 322 321 321 321 320 319 319 317 316 315 316 319 320 322 320 320 320 319 319 322 320 315 313 312
308 304 304 303 303 302 303 312 317 314 314 314 313 316 318 317 317 319 318 319 318 320 321 322 323 321 319 319 319 315 315 317 320 320 320 324 325 325 321 324 319 321 316 313 312
308 306 305 303 303 303 303 316 317 314 313 315 315 315 316 317 318 318 319 319 318 318 323 322 322 320 319 317 315 316 318 316 318 320 322 323 325 328 325 325 322 317 314 314 313
307 305 303 304 303 303 305 316 315 314 313 314 314 315 316 315 316 317 318 319 319 318 318 320 322 320 320 320 319 315 316 318 316 322 323 323 328 329 329 327 325 317 315 314 312
306 306 304 303 303 301 303 310 314 314 314 313 313 312 315 316 315 315 317 318 318 318 317 317 319 321 323 323 320 321 323 323 317 319 322 322 327 327 329 328 326 319 315 314 313
305 306 303 303 303 302 302 305 313 314 314 315 314 313 314 316 317 315 316 318 318 318 318 317 318 321 327 329 327 320 321 324 323 326 325 325 329 325 329 330 326 321 316 314 314
304 306 302 304 305 304 304 304 309 312 314 312 313 314 314 315 315 317 318 319 317 317 316 316 317 321 325 331 328 328 331 329 327 328 332 333 330 326 330 325 322 318 316 314 314
303 306 305 305 303 304 304 303 305 307 309 310 312 313 312 313 313 315 319 318 317 319 323 320 317 320 322 322 328 330 332 330 327 329 332 331 329 327 329 329 325 318 315 314 315
303 304 304 308 307 306 301 302 303 304 308 310 311 312 312 313 313 313 314 314 315 316 320 318 320 320 321 321 327 327 330 331 328 326 329 328 329 329 328 329 328 321 314 315 314
300 305 306 305 306 306 307 305 304 303 304 308 309 310 310 311 312 313 313 314 315 315 322 319 321 328 332 323 326 327 327 330 328 328 328 329 330 329 329 329 328 322 317 316 315
299 302 307 305 305 306 307 307 308 307 308 308 308 308 309 309 308 308 309 309 308 308 313 324 323 327 333 329 332 333 330 329 329 328 328 329 327 326 327 330 328 327 319 317 316

GFSSW_925_thetae_006.txt.gz
Theta_e
306 306 307 307 307 307 307 307 307 308 308 308 308 308 308 309 311 314 318 317 320 321 321 327 326 325 323 321 323 318 323 325 324 315 315 313 314 313 315 315 316 315 314 313 313
306 306 306 306 307 307 307 307 307 307 308 308 308 308 308 308 311 316 316 317 319 321 322 324 321 320 319 320 321 321 322 324 320 313 315 313 313 314 317 317 315 314 313 312 313
305 306 306 306 306 307 307 307 307 307 307 308 308 308 308 308 319 318 317 317 317 320 321 323 321 320 321 320 320 320 324 321 319 314 313 313 313 314 316 317 314 313 313 312 313
303 304 305 305 306 306 306 307 306 307 307 307 308 308 308 310 314 320 321 321 320 319 322 321 319 320 319 319 320 323 321 319 319 317 312 313 313 317 316 315 315 312 312 312 312
302 303 304 305 306 306 306 306 306 306 306 307 307 308 309 317 315 316 319 317 322 320 322 319 319 319 320 319 320 321 319 317 316 312 314 313 315 317 316 316 314 311 312 312 311
303 301 302 302 303 304 305 305 305 306 306 306 307 308 311 312 311 313 314 317 321 322 322 320 320 318 319 320 321 320 317 317 314 314 314 315 316 317 316 315 313 312 312 312 312
304 303 303 301 300 300 302 304 305 306 306 306 307 309 316 309 311 319 322 322 321 322 320 322 321 320 320 321 319 317 319 317 317 314 315 314 315 316 316 314 313 312 312 312 312
305 305 303 301 300 298 299 303 305 306 307 308 308 315 311 311 312 311 313 315 315 323 322 322 322 320 321 319 318 318 316 317 317 315 315 314 315 315 314 314 313 312 312 312 312
306 305 304 302 301 300 298 301 305 307 312 313 316 316 311 313 317 312 312 315 317 321 322 321 319 318 318 318 318 316 320 318 318 314 315 314 316 315 314 315 314 312 313 312 312
306 305 304 303 302 301 299 302 306 314 316 314 318 314 308 310 315 319 315 317 320 319 320 320 316 317 314 316 320 320 319 318 318 317 315 314 314 314 316 315 315 312 313 313 313
306 306 305 304 303 302 301 303 308 315 318 313 310 310 313 315 315 318 320 321 320 319 319 318 318 318 317 317 318 319 319 319 320 318 316 315 315 316 315 314 314 312 312 312 313
305 305 305 304 303 302 300 303 305 305 309 311 311 314 315 314 315 315 321 320 320 320 318 319 320 318 318 318 318 317 318 318 317 317 315 317 316 314 315 315 314 312 312 312 313
306 305 304 304 303 302 302 306 305 306 310 314 313 314 314 315 315 316 319 320 320 319 319 320 321 319 319 319 320 319 319 318 318 317 315 315 315 315 315 315 315 312 312 312 312
309 307 304 303 303 301 301 303 305 306 315 315 316 315 314 315 316 315 319 321 321 321 319 319 319 320 320 321 319 320 318 319 319 318 318 315 317 315 316 316 317 312 311 312 311
307 309 304 303 303 302 301 301 304 307 308 311 316 316 313 315 315 316 317 319 320 321 320 323 319 320 320 320 318 320 319 318 318 317 316 317 315 316 319 320 317 315 311 311 310
305 308 305 303 302 303 302 301 307 316 318 313 315 316 315 315 315 315 317 319 318 319 319 321 318 319 320 319 318 319 318 315 315 314 316 315 316 316 317 319 318 317 312 311 310
303 307 307 304 301 302 302 305 315 317 312 313 314 315 316 316 315 316 317 318 319 320 321 320 319 319 319 320 316 316 314 317 317 318 320 317 318 317 318 317 318 319 313 311 311
302 304 308 304 303 303 302 309 317 314 313 313 312 315 316 315 316 315 315 318 316 318 320 321 323 319 318 319 319 314 314 316 318 316 315 319 322 320 319 321 320 318 314 311 311
303 304 307 305 303 303 302 312 312 313 313 313 313 315 316 316 316 316 315 316 317 317 321 321 321 319 318 318 318 317 315 314 315 317 319 319 321 323 325 324 320 315 313 312 311
304 304 306 305 304 302 302 307 312 313 312 312 313 313 315 315 316 316 315 315 315 317 318 319 321 319 319 317 316 317 315 317 313 319 320 319 323 325 322 325 323 318 313 312 311
304 305 306 305 303 303 303 303 306 313 313 312 312 313 314 314 315 315 316 316 316 317 318 316 319 320 319 320 318 318 319 319 314 315 317 318 322 320 325 327 327 321 314 312 312
304 305 304 303 305 305 305 304 306 308 313 313 312 311 312 313 314 315 317 316 316 317 317 316 317 320 324 322 322 318 318 320 319 319 320 319 321 321 326 328 328 324 314 312 312
304 305 302 304 308 306 304 305 304 305 311 312 313 313 312 314 315 315 316 315 314 317 315 315 315 317 317 327 327 327 326 321 321 321 327 327 322 322 327 326 325 323 314 312 312
298 304 303 303 304 304 305 305 304 304 305 309 311 312 312 313 313 314 317 316 315 317 323 318 314 317 321 319 327 329 331 326 323 325 325 328 326 326 327 329 326 320 314 312 312
298 302 304 305 306 304 302 302 305 304 306 308 311 312 312 312 312 312 313 313 314 317 319 315 316 317 317 317 323 322 326 328 325 323 325 324 328 325 324 327 327 318 313 312 312
300 303 303 302 305 306 305 305 304 304 303 306 309 311 311 312 311 313 312 313 313 309 314 316 318 316 318 318 318 320 322 328 326 324 327 324 326 324 325 327 328 321 315 314 314
297 300 304 303 307 307 306 306 306 305 306 305 307 307 307 308 308 307 306 308 309 310 308 315 321 320 319 324 323 324 321 327 327 325 324 327 324 324 328 328 327 325 316 315 315

GFSSW_925_thetae_009.txt.gz
Theta_e
306 306 306 306 306 306 306 306 307 307 307 308 308 308 308 308 309 311 316 315 317 319 323 325 326 324 323 327 327 324 330 329 329 329 327 317 318 316 317 319 318 318 318 316 314
304 305 305 306 306 306 306 306 307 307 307 308 308 308 308 308 309 315 313 315 316 320 322 326 326 324 326 325 325 327 329 329 328 325 324 319 318 318 319 319 319 318 315 313 314
304 303 303 305 305 306 306 306 306 306 307 307 307 308 308 308 318 315 318 316 316 317 320 322 323 324 325 324 325 325 325 324 324 325 321 320 316 317 319 320 320 320 317 316 316
305 303 302 303 303 304 305 306 305 306 306 306 306 307 308 310 312 318 320 318 319 317 320 321 322 323 323 323 323 324 325 325 325 321 318 318 317 318 319 320 319 318 317 316 317
303 301 300 300 301 302 303 304 305 305 305 306 306 306 308 314 312 314 320 316 317 318 320 322 323 323 323 323 322 324 324 321 320 317 317 316 318 319 319 319 317 317 316 317 318
305 304 304 301 299 299 300 302 305 305 305 306 305 306 312 311 310 311 311 313 317 321 321 321 323 323 323 322 323 324 322 319 317 317 317 318 318 318 319 319 317 317 317 317 317
306 306 305 304 303 299 298 301 304 305 306 306 306 309 315 311 310 314 321 322 321 322 322 321 321 323 324 324 322 320 321 320 319 318 318 317 319 319 320 319 319 317 317 316 317
307 306 306 305 304 303 300 298 301 303 304 306 309 315 311 311 311 311 313 316 319 317 321 321 321 322 323 321 321 320 320 322 320 318 317 318 322 321 319 319 320 317 316 317 317
307 307 307 306 305 303 302 299 299 302 306 315 316 317 314 311 314 312 311 311 313 317 322 320 322 324 320 323 322 322 326 325 322 318 317 318 321 320 318 319 321 318 317 317 317
307 306 306 306 305 304 302 299 302 309 317 317 319 317 314 312 313 317 315 313 319 321 322 322 321 323 322 323 324 324 323 321 322 321 318 319 318 321 319 319 320 319 317 318 318
309 307 306 305 304 304 303 300 311 317 320 315 315 312 311 314 314 317 317 315 321 322 323 322 324 326 325 323 322 323 323 324 322 321 320 321 322 321 321 319 320 319 318 318 319
306 309 307 305 304 304 302 304 305 303 310 311 313 316 315 315 314 315 319 320 323 322 322 322 326 325 323 322 321 322 323 324 323 320 320 322 322 322 321 321 321 321 319 319 319
304 306 308 306 304 303 301 305 303 303 312 313 313 314 315 314 315 316 321 321 322 323 323 326 325 321 322 322 323 323 324 324 324 321 319 320 322 323 322 319 319 320 320 319 319
303 305 307 306 303 302 302 303 302 303 315 315 316 315 315 315 316 315 317 322 322 323 323 325 322 322 323 324 324 326 323 323 323 323 325 320 325 323 323 324 322 321 319 319 319
304 304 307 306 304 304 302 301 302 305 312 313 316 315 316 316 317 316 317 320 324 323 324 325 323 324 324 324 323 325 322 323 323 324 322 322 322 322 322 324 325 326 321 319 318
303 304 306 305 303 304 303 302 306 317 316 314 316 317 317 316 316 316 317 320 323 324 323 325 322 324 324 323 323 323 322 321 321 322 325 323 322 322 323 324 325 325 322 319 318
303 302 304 305 304 304 303 305 318 319 313 315 316 317 318 317 316 318 317 318 323 326 327 324 325 322 323 324 321 323 325 326 327 327 325 322 322 323 324 325 323 324 324 319 318
302 302 303 304 306 304 303 310 317 313 314 314 314 318 317 318 317 316 318 318 321 324 326 327 327 323 322 325 324 324 326 325 328 325 324 322 324 322 325 326 326 324 323 319 318
300 303 303 304 306 303 304 312 312 313 314 313 314 318 318 318 317 316 318 318 320 324 324 326 325 322 322 322 324 321 323 323 325 322 323 323 325 326 328 328 326 322 319 318 318
302 304 304 304 304 303 305 309 310 312 313 313 315 315 319 318 318 317 318 317 318 321 324 324 325 323 322 322 320 323 321 323 321 325 327 323 326 325 326 327 330 324 322 319 318
302 305 304 304 304 304 307 306 307 310 313 314 314 316 317 318 318 318 317 316 318 319 322 324 324 324 322 324 324 321 323 323 323 322 326 327 325 327 328 333 335 331 324 320 319
302 305 304 304 305 304 307 305 306 306 308 311 314 314 316 317 318 319 318 317 317 320 321 323 326 326 324 323 324 324 324 325 325 327 324 325 325 324 331 333 334 331 323 320 319
302 302 304 305 306 308 306 306 305 306 306 310 314 314 314 317 319 319 318 317 316 319 323 323 328 327 324 329 329 324 323 325 326 327 327 326 326 327 331 333 331 329 323 319 319
300 304 300 305 305 307 307 306 306 305 305 305 306 314 314 315 316 318 318 316 316 318 326 324 327 327 326 324 326 329 328 324 326 326 325 326 325 329 331 332 330 330 324 321 319
300 303 301 305 304 305 305 306 306 307 305 307 308 311 314 315 315 315 316 315 315 324 321 325 326 323 323 322 325 325 326 328 327 325 326 326 328 327 329 331 332 330 324 321 320
300 303 300 304 302 305 307 307 307 305 306 305 308 312 312 315 314 315 315 316 316 315 321 321 325 323 322 321 322 322 322 325 327 325 326 325 326 328 329 331 331 328 323 322 321
298 300 302 305 306 308 307 306 306 306 305 305 306 307 310 311 312 312 312 312 312 314 316 322 327 324 324 322 321 324 322 322 326 326 325 326 327 328 331 332 332 330 325 324 323

GFSSW_925_thetae_012.txt.gz
Theta_e
305 305 305 306 306 307 307 307 306 306 306 307 307 308 308 308 309 313 317 316 318 321 326 329 326 327 328 330 330 329 329 330 331 331 331 330 327 324 322 322 322 322 322 322 321
303 304 304 304 305 305 306 306 306 306 307 306 306 307 308 309 312 315 315 313 315 318 326 327 328 327 330 330 329 328 327 328 328 330 331 329 328 327 322 323 322 322 321 319 319
302 301 302 303 303 304 304 305 305 305 305 305 306 306 307 308 317 316 316 314 314 317 323 326 327 328 329 329 328 326 327 326 327 328 328 327 326 326 323 324 324 323 323 321 320
306 306 306 303 300 300 301 304 304 305 305 305 305 306 307 315 314 323 318 319 315 321 322 325 326 328 328 329 328 327 324 326 327 327 326 326 326 324 322 324 323 323 323 322 322
307 306 306 304 301 299 299 299 301 302 303 304 305 306 311 316 313 315 321 319 320 321 320 324 326 327 327 328 327 326 325 325 327 325 325 324 324 323 323 323 322 322 322 323 323
308 307 306 306 304 302 300 298 299 301 303 304 304 305 314 313 313 312 315 318 318 322 320 322 326 326 326 327 326 325 325 326 326 324 323 323 323 322 323 322 323 322 323 323 322
307 307 307 307 306 305 303 300 299 299 302 303 303 311 313 313 313 315 317 321 318 320 323 321 324 325 325 326 326 326 326 326 324 323 324 322 323 323 324 323 323 323 323 322 322
308 307 307 307 307 307 305 301 299 299 300 301 306 315 314 312 312 313 313 320 323 321 321 322 323 325 325 326 325 324 325 327 327 323 323 322 325 324 324 323 324 324 323 322 322
310 308 307 306 305 305 305 303 301 299 300 306 317 318 315 313 313 313 314 315 316 320 321 323 323 325 326 327 327 326 327 329 329 326 324 323 325 324 323 323 324 324 324 322 322
307 308 308 307 306 305 304 304 303 307 318 318 320 319 316 315 314 316 315 313 315 316 325 325 326 326 327 328 329 327 327 327 328 327 324 325 325 323 323 324 325 325 324 323 323
304 305 306 308 307 305 305 306 312 319 319 316 318 314 315 314 315 317 317 314 318 323 325 326 327 328 327 328 327 326 327 327 327 326 325 326 325 324 324 324 325 325 325 324 324
303 304 304 306 308 306 306 308 310 307 312 315 317 317 315 316 317 317 319 317 319 323 324 327 327 327 327 327 326 326 327 328 327 326 325 325 325 325 324 325 326 326 327 325 324
303 303 304 305 308 307 307 307 306 307 313 313 313 316 316 317 318 318 320 318 319 322 324 327 326 327 327 327 327 327 328 328 328 327 325 325 326 325 324 325 325 325 326 326 325
303 302 303 306 307 307 307 305 306 306 314 315 314 314 315 315 317 317 320 319 321 322 324 325 325 327 327 328 327 328 327 327 327 327 326 325 327 325 324 323 324 326 327 326 325
300 303 303 306 308 308 306 305 305 309 318 318 318 317 315 316 315 316 318 321 321 322 325 327 327 327 328 327 326 327 326 326 326 326 327 326 327 325 323 324 324 324 327 327 326
299 303 303 304 307 308 307 306 308 318 318 316 318 318 317 316 316 317 317 320 322 322 324 326 326 327 327 325 325 325 326 326 326 326 329 326 326 323 322 323 324 326 329 327 325
299 300 304 304 306 307 306 307 316 317 317 317 318 319 318 317 317 319 318 318 320 324 326 325 326 326 326 326 325 325 327 328 330 329 328 326 324 324 323 323 325 327 330 328 325
299 298 304 304 303 305 307 309 316 316 317 316 317 319 320 319 318 318 319 318 319 323 325 326 326 327 326 325 326 326 327 328 329 329 328 325 326 323 324 328 329 330 330 328 325
300 299 304 305 303 304 309 311 313 316 317 317 316 319 320 320 319 318 319 318 319 322 324 326 326 325 326 325 325 326 327 326 327 327 328 326 325 325 325 326 330 330 328 327 325
301 301 303 305 305 304 309 313 310 313 315 316 317 318 321 320 319 320 320 319 318 320 324 325 328 325 326 324 324 326 325 327 327 330 331 326 326 325 324 324 332 332 329 327 325
301 304 303 305 305 305 310 310 310 311 313 316 317 318 318 321 320 320 320 319 319 319 322 325 327 327 325 327 325 325 327 326 327 327 329 330 327 326 324 327 330 334 331 328 326
300 304 304 305 306 305 309 310 308 309 309 310 314 318 318 319 321 321 320 320 318 319 322 324 325 328 326 325 324 325 325 327 328 329 327 327 327 326 326 328 333 336 332 328 326
302 303 304 305 307 307 308 309 309 308 308 310 312 316 318 319 321 321 320 319 318 319 322 325 325 326 325 328 327 325 325 325 327 328 329 329 328 327 328 332 333 336 332 328 327
303 303 304 303 305 307 306 308 309 308 308 307 309 311 316 319 320 321 321 320 318 319 326 328 325 326 328 328 326 327 324 325 327 329 329 328 327 328 328 330 332 335 332 329 327
302 303 303 309 305 308 306 307 308 310 307 308 309 311 314 319 318 319 321 321 319 322 324 328 329 324 323 323 325 325 325 324 327 327 328 326 326 326 326 328 330 333 333 330 327
302 305 302 305 305 306 306 306 306 307 308 308 309 310 313 318 320 319 319 321 321 322 322 326 326 324 324 322 323 323 324 325 326 326 326 326 326 326 326 326 329 333 333 331 329
299 301 303 305 306 307 307 307 306 306 307 308 308 309 311 316 315 316 317 318 319 323 325 327 325 326 325 322 322 325 323 325 326 326 326 326 326 325 325 328 329 333 332 331 330

GFSSW_925_thetae_015.txt.gz
Theta_e
303 304 304 304 305 305 305 306 306 306 306 306 307 307 308 308 309 318 318 317 319 323 330 331 330 330 330 330 330 331 332 332 331 331 332 331 331 330 328 327 325 324 324 325 325
302 301 301 302 302 303 304 305 305 305 305 305 306 307 307 307 315 317 317 317 316 319 329 331 331 329 330 330 330 331 331 329 329 329 330 330 330 330 329 327 326 325 324 323 323
306 305 303 301 300 300 300 303 305 305 305 306 306 306 307 308 320 319 321 317 315 317 324 329 330 330 330 330 330 330 330 327 327 326 328 329 328 328 328 327 327 325 324 325 324
308 308 307 305 302 300 299 300 302 303 305 305 305 306 307 313 316 324 318 317 315 319 321 325 329 331 332 331 330 331 329 328 326 326 329 328 328 327 326 326 325 324 323 325 325
308 308 308 308 307 304 301 300 299 299 301 304 304 305 311 317 317 318 318 320 318 319 322 324 327 329 331 331 330 330 329 327 326 326 329 327 327 327 326 325 324 323 323 323 325
308 308 308 308 308 308 307 305 302 299 299 301 303 304 315 314 313 314 320 325 326 322 322 323 327 328 329 330 328 329 329 327 326 327 328 326 327 325 326 324 323 324 323 323 324
309 308 308 307 307 307 306 306 305 301 300 299 300 309 314 314 314 315 314 315 318 323 324 322 323 326 327 328 327 328 328 327 327 327 328 327 326 327 326 326 325 324 325 325 325
307 309 309 308 307 307 306 305 305 304 301 299 300 313 316 313 314 313 316 319 321 320 318 323 322 324 327 327 327 327 328 330 328 328 327 326 328 328 327 326 326 325 326 325 325
305 307 308 309 308 307 307 307 305 305 302 301 313 317 316 315 314 314 315 315 315 321 320 322 324 324 326 327 328 329 329 328 328 328 328 327 328 328 327 326 326 326 326 326 325
304 305 306 306 307 308 307 307 307 306 313 316 314 320 319 316 315 316 315 315 317 321 323 324 326 325 327 328 330 331 330 329 329 330 330 328 328 328 328 326 325 326 327 327 326
304 303 304 304 305 307 308 310 314 319 317 317 317 317 316 315 315 316 317 317 317 318 321 324 327 327 328 328 328 329 330 329 330 329 329 329 329 329 328 327 326 325 327 328 328
303 304 303 304 304 306 308 312 313 311 316 321 320 319 317 317 318 317 319 318 318 318 318 326 327 326 326 327 328 330 330 329 329 329 329 330 329 328 326 326 326 326 327 328 329
300 302 303 303 304 307 310 311 310 310 314 314 315 318 318 318 318 319 319 318 317 319 319 325 327 326 326 327 329 330 330 329 331 330 330 330 329 328 327 327 326 325 326 328 330
301 299 302 303 305 310 311 310 309 310 315 316 317 316 317 318 318 318 319 321 318 319 321 324 326 326 326 328 329 330 328 328 329 330 331 328 330 328 327 326 325 326 327 328 330
303 297 301 303 307 312 310 308 309 311 319 320 320 317 318 318 317 317 319 321 320 319 321 323 325 326 327 328 328 329 328 328 328 329 330 328 329 328 327 326 325 326 326 330 330
304 301 300 304 306 308 310 309 309 318 318 319 320 319 318 317 318 319 318 321 321 320 321 322 324 325 327 327 328 328 327 327 328 329 330 328 329 328 327 325 325 326 328 330 330
305 304 300 305 309 308 308 311 314 317 317 320 320 321 319 318 318 318 318 320 323 321 324 322 323 326 326 328 328 328 328 330 331 332 331 328 328 328 326 325 325 326 328 332 330
303 304 300 302 307 306 308 313 316 316 318 320 320 321 320 320 319 319 319 320 322 323 324 324 325 326 328 329 328 327 328 328 331 332 331 329 329 328 326 325 326 329 333 333 330
304 304 302 303 306 306 309 315 314 316 318 319 319 320 321 321 320 320 320 320 321 324 325 325 326 325 327 327 328 328 328 327 329 328 329 330 329 328 325 324 327 331 332 332 330
303 303 303 303 306 306 309 311 312 313 315 318 320 320 322 322 322 321 322 321 321 321 324 326 327 326 326 327 327 327 327 328 328 332 333 330 329 328 326 326 330 333 333 331 329
302 304 304 304 306 308 308 310 310 312 314 314 318 320 321 322 322 322 321 322 322 321 321 324 328 328 327 329 328 326 326 328 329 329 331 332 330 329 327 326 328 333 333 331 329
303 308 305 306 309 307 308 308 309 309 311 312 313 315 319 322 323 323 323 322 322 322 322 325 328 330 328 328 328 327 326 328 330 331 329 331 331 328 327 327 328 332 333 330 329
304 306 306 306 308 310 307 307 307 309 310 311 312 314 317 320 324 323 323 322 322 322 325 327 329 332 331 329 328 328 326 327 330 331 331 331 330 328 328 327 329 330 332 331 329
305 309 308 308 308 308 309 309 307 308 309 311 312 312 313 317 321 324 324 322 322 321 327 329 330 331 332 332 328 328 326 326 328 332 330 330 329 329 329 328 328 331 332 332 330
305 306 304 308 307 306 306 309 310 308 310 310 311 313 313 319 322 323 323 323 322 323 325 331 334 328 328 327 327 327 326 326 327 328 330 330 329 329 328 329 328 331 332 332 331
305 304 305 307 304 306 306 307 307 308 308 310 310 311 313 317 320 322 322 325 324 321 322 332 333 328 327 326 326 328 327 326 325 326 327 329 329 328 327 327 328 329 333 332 332
304 304 304 305 306 309 307 308 307 308 308 309 310 309 311 313 315 318 319 321 326 324 325 327 330 332 329 325 325 328 327 327 326 325 326 328 328 328 327 327 327 329 331 332 332

GFSSW_925_thetae_021.txt.gz
Theta_e
309 309 309 309 308 305 302 301 301 303 304 305 306 305 306 306 307 309 317 312 314 314 325 328 326 329 329 330 331 331 330 331 331 331 330 324 326 327 327 329 328 323 323 326 326
309 309 309 309 308 308 307 306 302 301 300 303 305 305 306 305 307 312 311 312 317 317 316 329 330 329 329 330 330 330 329 331 330 329 329 325 324 326 327 326 328 325 325 326 326
309 309 309 309 308 308 308 308 307 306 303 300 301 304 305 305 316 314 319 320 316 319 318 321 328 330 331 330 330 329 329 328 328 329 328 326 323 323 326 327 326 324 324 324 324
308 309 310 309 309 308 308 308 307 307 306 304 301 300 303 306 310 319 318 316 318 317 319 320 321 327 331 331 330 330 328 329 328 329 329 327 326 325 326 326 324 323 324 322 322
305 306 307 309 309 309 309 308 307 307 307 306 304 301 304 313 312 312 315 319 318 319 321 319 318 321 325 330 330 330 329 329 330 329 327 326 326 326 325 326 324 323 324 323 321
305 304 305 306 307 308 309 309 308 308 308 307 307 306 312 311 309 311 312 315 319 318 319 318 318 319 322 327 329 330 329 329 330 328 327 327 327 324 325 326 323 323 320 320 320
304 305 305 304 305 306 308 308 309 308 308 308 311 311 310 309 311 313 314 313 314 321 320 318 318 319 321 321 322 325 326 327 328 327 326 327 325 325 325 325 325 324 321 321 320
301 302 304 305 305 305 304 305 306 306 307 308 312 311 310 307 310 309 310 311 314 315 323 321 319 318 319 320 322 323 324 327 326 326 326 325 326 325 326 325 326 325 324 323 321
305 302 300 303 305 305 304 304 304 305 306 309 312 311 308 308 309 309 311 312 313 315 320 324 323 320 321 321 322 322 324 326 327 326 327 326 327 326 326 325 325 325 324 324 322
307 306 304 299 301 303 304 303 304 307 310 312 312 311 310 313 312 313 313 313 315 316 315 315 316 317 317 321 324 323 325 326 327 327 326 327 326 327 326 326 325 326 325 325 325
306 306 305 304 297 302 304 305 311 314 313 313 313 310 314 314 316 317 315 315 315 314 315 318 318 321 318 319 323 323 325 327 327 327 326 329 329 330 329 327 326 326 326 324 324
305 305 305 305 300 299 302 305 308 310 313 313 312 313 312 314 315 317 317 316 315 314 314 314 315 316 322 321 324 323 323 324 326 327 330 330 329 330 329 327 326 326 325 325 326
304 304 304 305 303 299 305 306 310 307 312 314 314 314 315 315 316 316 317 316 316 314 314 314 315 316 322 322 324 325 324 324 326 327 328 328 330 330 330 328 327 326 324 327 326
304 304 305 305 303 304 306 309 310 310 314 310 312 313 314 317 318 317 317 316 316 316 315 314 315 319 322 323 324 325 325 326 327 328 329 329 329 328 327 326 326 326 322 326 326
304 304 305 305 304 302 306 308 309 313 314 312 312 314 313 318 320 320 318 318 316 317 316 315 315 316 320 322 323 325 326 326 327 327 327 327 326 326 327 328 326 324 324 327 327
304 304 304 305 306 302 305 308 310 313 314 313 316 315 315 317 320 321 319 318 317 317 317 317 317 317 317 319 322 324 325 325 326 328 330 328 328 327 327 328 327 328 329 329 327
304 304 304 305 306 305 304 308 314 315 310 312 317 316 316 316 319 321 319 318 318 317 319 318 317 317 318 317 318 324 324 327 329 329 329 327 327 325 326 326 325 327 329 328 328
304 303 304 305 304 306 305 312 313 309 310 311 311 312 314 317 317 319 320 319 317 317 318 319 318 317 318 317 318 318 324 326 331 332 328 327 330 329 328 326 324 330 329 328 327
304 304 305 305 305 306 307 312 310 308 308 309 309 311 314 316 317 317 318 319 318 317 317 319 319 319 318 319 319 322 325 323 328 329 328 328 331 329 326 324 325 331 330 328 327
304 305 305 305 306 306 306 309 307 307 308 308 309 309 311 312 316 318 318 318 319 318 317 319 320 320 319 318 319 320 324 327 326 329 330 328 330 333 327 324 326 331 332 329 327
304 304 304 305 306 306 307 309 307 307 307 307 307 308 310 311 313 316 320 320 319 319 317 319 323 324 320 319 318 320 323 326 324 324 328 329 328 327 326 324 331 331 331 328 326
303 305 305 306 307 306 307 307 308 307 307 307 307 307 308 310 314 316 319 321 319 320 319 319 322 323 325 321 320 321 322 326 328 330 325 325 329 326 326 331 331 332 330 326 324
305 305 307 306 310 307 306 307 307 307 307 308 309 310 307 311 316 317 318 318 319 320 319 319 320 325 326 323 321 320 326 325 327 326 329 329 328 329 327 326 332 330 329 327 325
304 304 307 308 307 307 307 306 305 305 305 307 307 309 308 308 310 315 316 317 317 320 328 324 319 320 326 326 324 321 327 326 327 327 327 329 329 329 327 325 326 330 328 327 326
304 306 307 306 306 306 305 306 306 305 305 304 307 309 309 309 310 312 315 316 317 322 315 323 320 322 321 324 326 325 328 327 326 328 328 327 329 328 326 324 325 329 328 327 326
303 305 304 305 306 306 306 307 307 307 307 308 309 309 311 312 311 313 314 315 315 314 313 317 323 321 323 324 324 325 326 327 327 326 327 326 326 327 329 325 325 330 329 328 327
303 304 304 305 305 306 307 308 308 308 308 308 309 308 309 312 311 312 310 311 312 312 314 317 329 322 322 322 323 324 327 327 327 326 325 325 325 327 329 327 326 327 330 329 327

GFSSW_925_thetae_024.txt.gz
Theta_e
311 311 309 309 309 308 308 307 306 303 301 302 304 305 305 305 306 307 310 310 312 313 319 326 326 326 328 328 329 328 331 333 331 330 330 327 324 324 326 327 325 323 324 325 324
309 310 310 310 309 309 308 308 307 307 307 302 301 302 304 303 306 310 310 311 311 311 314 324 329 328 326 328 328 329 330 334 332 329 327 326 324 322 324 323 325 326 325 325 323
307 308 309 310 310 309 309 308 308 307 307 306 303 301 301 303 313 311 317 317 318 311 314 316 327 327 328 328 329 328 331 331 329 327 327 328 326 324 323 323 324 324 325 323 322
307 307 307 307 309 309 309 309 309 308 308 307 307 306 300 305 307 315 317 314 317 315 318 319 318 323 329 329 329 330 330 330 329 328 327 327 327 326 324 323 323 323 324 323 322
306 307 307 307 306 307 306 308 309 309 308 308 308 308 306 313 308 312 317 312 317 318 320 318 317 317 320 326 329 330 330 330 329 327 327 326 326 325 325 323 322 322 323 323 322
303 301 304 306 307 306 306 306 306 307 308 308 308 311 310 306 306 307 309 310 315 321 321 318 317 317 317 319 322 325 328 329 329 328 327 327 327 325 326 324 321 323 322 321 321
306 305 300 299 303 307 306 306 305 304 305 307 310 312 311 309 304 307 311 311 311 316 318 320 319 317 316 317 318 320 321 323 325 325 325 326 325 326 324 323 321 320 321 320 320
307 306 306 304 300 301 305 304 304 304 306 308 311 312 312 308 306 306 307 306 309 312 316 318 318 315 315 315 318 320 319 321 322 323 324 323 327 325 323 323 323 322 321 319 319
305 306 306 306 306 304 300 299 302 303 306 308 310 311 310 307 308 307 307 308 309 310 311 314 318 316 317 317 317 318 321 321 322 322 324 324 326 325 324 323 323 322 323 321 319
305 305 305 306 305 305 301 298 301 306 307 309 311 312 310 311 310 309 309 308 310 313 312 315 320 321 316 317 322 322 320 322 323 324 324 324 324 324 325 324 323 322 322 322 321
305 304 304 305 305 305 303 300 306 312 309 312 311 310 312 311 312 314 311 310 311 313 313 314 320 318 323 320 319 322 321 322 323 323 325 325 326 326 326 323 322 322 322 323 322
304 304 305 305 305 305 303 303 304 307 308 309 312 311 310 310 312 314 314 313 313 312 313 314 314 316 316 317 317 318 321 322 322 323 323 324 326 326 327 326 324 325 323 322 324
303 303 304 304 305 303 302 304 307 306 309 311 310 313 312 312 313 313 315 315 313 313 313 313 315 315 315 319 318 318 320 323 323 322 322 324 327 328 328 327 326 325 323 324 324
304 303 304 304 305 303 302 305 305 307 311 313 312 313 313 313 315 314 314 316 314 312 313 313 314 316 317 316 319 321 320 322 324 324 325 325 328 325 326 325 324 323 322 324 324
303 304 304 304 305 304 303 304 305 308 312 309 309 313 313 314 317 317 316 315 316 314 312 313 314 314 314 314 316 321 321 322 325 325 324 325 325 324 324 325 324 322 323 323 323
303 303 304 304 305 304 305 305 305 311 313 309 309 308 312 313 314 319 317 315 316 316 314 313 314 314 314 315 316 321 322 322 323 324 326 325 325 327 324 326 325 325 323 324 324
302 302 304 305 304 304 304 303 312 314 309 309 308 307 309 314 314 316 318 316 316 317 315 315 315 315 315 314 316 320 320 323 324 326 328 324 327 327 325 325 323 327 327 325 325
303 303 303 303 303 304 305 308 314 308 308 308 308 308 311 310 312 316 319 317 315 315 315 315 317 316 316 315 315 316 319 324 326 328 327 325 328 326 323 324 324 327 326 326 326
303 304 304 304 304 305 306 311 307 308 307 307 308 308 308 308 310 314 317 319 316 316 315 315 317 318 317 316 316 315 316 317 322 326 325 325 326 327 324 329 328 327 327 327 325
303 303 304 304 305 305 306 306 307 306 306 307 308 308 308 308 310 312 315 317 318 316 315 316 317 318 317 316 316 315 318 320 321 326 328 327 328 328 324 330 329 329 327 326 324
304 301 302 305 305 306 304 305 305 306 307 307 307 307 307 307 309 311 313 317 317 318 316 315 317 320 317 316 316 314 315 317 321 322 326 326 327 322 322 323 331 328 327 325 325
301 301 304 305 307 306 306 305 306 306 306 307 307 308 309 310 309 312 315 315 313 316 318 316 314 317 318 317 316 315 315 316 323 325 323 324 325 323 323 325 329 329 327 325 324
301 300 305 306 306 307 306 306 306 307 307 307 308 308 309 309 310 312 315 314 312 315 318 319 316 318 319 319 319 316 316 318 320 322 324 326 325 323 326 328 328 329 326 325 324
300 301 303 305 303 305 306 306 305 305 305 304 305 305 306 309 309 309 310 310 311 313 316 314 319 317 319 322 320 319 317 320 323 325 325 326 325 327 326 330 328 328 326 325 324
298 301 304 304 303 303 303 304 306 306 305 305 304 303 307 309 310 308 308 310 312 314 312 310 320 317 317 319 321 321 319 320 326 324 327 325 324 326 323 329 329 327 325 324 324
296 303 304 302 302 303 303 304 307 307 308 307 307 309 309 310 311 312 309 311 313 313 311 310 316 320 318 317 318 319 321 319 324 325 323 325 326 323 323 327 329 327 326 325 325
302 302 302 302 301 300 302 306 308 307 309 308 308 309 309 309 309 311 310 311 311 311 311 311 316 320 319 318 318 318 319 322 325 325 324 324 322 322 324 322 328 327 326 326 325

GFSSW_925_thetae_027.txt.gz
Theta_e
310 310 310 310 310 310 310 309 308 307 307 305 304 302 302 302 305 307 307 310 312 313 312 321 326 328 326 326 327 324 329 331 330 330 329 326 327 326 323 324 324 322 323 323 324
308 308 309 309 310 310 310 310 309 308 308 307 307 305 302 301 305 308 311 312 312 310 312 327 327 327 325 326 327 328 329 331 329 328 328 326 325 324 323 323 323 324 324 323 323
307 307 308 308 308 308 309 309 309 309 309 308 308 307 305 301 309 307 314 316 317 312 310 317 328 325 326 326 326 326 330 328 329 328 327 326 327 327 324 322 322 322 323 321 320
305 305 306 307 308 307 306 307 309 310 310 309 308 308 307 305 306 311 316 314 313 319 315 316 318 325 328 328 326 329 328 329 329 329 329 328 326 327 327 326 326 321 323 321 320
306 306 305 304 305 306 306 305 307 308 308 307 308 310 310 312 305 311 317 312 320 318 317 317 317 316 318 323 327 329 328 327 328 328 328 328 327 327 327 326 323 321 323 322 321
307 307 306 306 306 305 304 305 305 305 305 308 309 310 311 307 304 306 308 307 308 319 320 317 317 316 316 317 318 322 324 325 327 327 328 328 328 326 326 325 322 320 323 322 321
305 305 306 306 306 307 306 304 304 305 307 307 309 310 310 312 307 305 307 308 308 308 319 319 317 317 315 316 314 315 317 318 319 322 324 326 324 325 325 323 321 319 321 322 321
305 304 305 306 306 307 307 306 305 304 305 307 308 309 311 310 309 310 309 307 306 309 311 316 319 315 315 314 316 317 317 319 319 321 321 322 324 324 324 322 322 320 320 320 320
305 304 304 305 305 306 306 306 306 306 305 307 307 309 310 308 310 309 309 306 307 306 307 313 315 315 314 316 315 315 317 316 317 319 320 322 324 323 323 322 322 321 319 320 319
305 304 304 304 305 305 305 304 304 306 306 307 307 310 309 309 308 309 309 307 308 309 309 310 315 316 313 313 316 316 317 318 318 320 319 321 322 323 322 322 322 322 321 321 319
305 305 304 304 304 304 305 304 302 308 308 309 308 307 309 310 310 311 308 307 308 310 308 310 313 321 320 319 318 316 319 320 320 321 322 322 322 322 323 322 322 320 319 319 320
304 305 305 304 304 304 305 301 304 305 308 307 307 310 310 310 311 311 309 309 309 307 309 312 312 316 321 321 320 319 319 320 321 321 321 321 321 322 322 322 323 324 321 320 323
304 304 304 303 304 304 302 303 304 303 307 309 308 309 309 310 312 311 312 312 311 309 309 310 313 314 319 318 322 322 320 319 320 321 321 320 322 321 323 324 324 323 322 322 322
303 302 304 303 304 303 304 303 304 304 309 310 312 310 310 310 311 310 312 315 313 311 309 309 310 313 315 317 316 317 317 318 319 321 323 321 325 323 323 323 323 323 320 319 322
303 303 304 303 304 304 303 304 305 305 307 307 309 311 311 311 313 312 311 312 315 312 311 311 311 312 314 314 314 317 318 319 319 321 322 324 324 322 322 324 322 321 319 322 321
303 304 304 304 303 303 304 304 304 311 311 308 307 307 310 313 312 313 314 312 314 315 312 310 312 312 313 315 315 317 317 319 319 320 324 323 323 323 323 323 323 323 321 322 322
303 303 304 304 303 304 304 303 311 312 308 307 307 306 308 308 313 313 315 314 314 315 316 312 312 313 313 313 313 314 312 316 321 323 326 322 323 325 323 322 322 322 323 323 323
302 302 303 303 303 303 304 306 309 308 309 307 307 306 308 307 307 311 314 317 314 313 314 315 314 313 314 314 314 313 314 320 324 326 325 323 326 325 322 322 322 322 323 323 324
302 302 303 304 304 303 306 306 306 308 307 307 306 307 307 307 307 310 311 314 315 314 313 315 314 315 314 314 313 313 317 317 320 323 323 323 323 323 324 326 325 326 325 324 324
302 302 302 304 304 305 306 304 305 305 305 307 307 307 307 307 307 308 311 314 316 315 313 314 314 315 315 314 313 312 313 317 315 323 327 325 326 326 324 327 327 327 325 324 323
301 300 302 304 305 304 306 303 305 303 304 307 307 307 307 308 308 308 311 313 312 313 315 314 314 317 315 315 315 313 314 313 314 317 323 324 324 322 323 326 327 325 324 324 323
300 299 302 305 306 304 305 305 305 305 305 306 307 307 308 309 309 307 310 311 311 312 314 315 312 315 316 315 316 315 314 313 317 319 318 321 323 321 321 324 326 325 324 323 322
300 301 302 305 306 306 306 305 305 306 306 306 307 305 306 308 307 310 311 312 310 310 312 315 316 316 315 318 315 315 314 314 313 318 322 322 323 319 320 319 326 324 324 323 322
300 302 300 300 299 305 305 305 305 305 305 304 304 304 304 305 306 309 309 307 308 308 314 310 315 318 316 317 317 315 315 313 314 315 318 323 323 325 324 326 327 326 324 323 323
296 298 302 301 302 302 302 303 305 307 305 304 304 304 305 305 308 309 308 309 308 308 311 309 313 318 319 315 316 319 315 315 316 316 318 319 322 322 323 324 327 325 323 323 323
297 303 300 300 301 302 301 305 307 308 308 308 307 307 308 309 310 310 310 310 310 309 311 308 310 316 322 318 316 316 318 315 315 317 319 322 321 320 322 325 327 326 325 325 324
301 301 302 302 302 298 300 304 305 307 307 307 307 306 308 308 309 308 309 309 310 310 311 310 311 311 321 320 316 316 316 317 317 319 320 322 322 320 322 327 327 326 325 325 324

GFSSW_925_thetae_030.txt.gz
Theta_e
308 308 309 309 309 309 310 311 310 310 310 309 309 308 306 304 303 304 307 309 311 311 312 318 319 328 325 325 325 322 328 328 329 329 328 325 327 324 323 324 322 323 322 322 322
306 306 306 307 308 308 308 309 309 310 310 311 311 309 308 307 306 310 309 310 310 310 311 324 328 326 325 325 326 327 327 327 326 326 327 325 327 326 326 325 325 322 321 323 321
308 308 307 306 305 307 307 308 308 309 309 311 311 310 309 306 308 305 310 312 310 309 310 316 324 324 325 324 326 326 330 328 326 326 327 327 327 327 326 325 324 323 324 321 319
307 308 308 307 307 306 303 305 308 308 309 309 309 309 309 307 303 312 313 320 321 316 310 315 322 324 324 326 325 328 326 328 325 325 327 328 327 328 327 327 326 325 322 320 319
306 307 307 307 307 307 307 306 304 305 307 307 308 308 310 309 305 309 317 307 311 318 313 314 316 323 326 325 325 326 326 326 326 324 325 327 328 328 327 327 326 324 320 321 320
305 306 306 306 306 307 307 307 307 306 304 306 308 309 309 312 308 306 304 305 305 314 317 314 314 315 316 315 320 322 325 325 324 324 326 327 326 326 326 326 323 322 320 320 320
305 305 305 306 305 307 307 307 307 306 307 306 306 308 308 310 309 307 305 306 307 307 314 317 316 315 314 316 314 315 316 315 316 318 319 321 322 323 324 323 322 321 320 320 320
304 304 304 305 306 306 306 306 306 306 307 308 306 307 308 308 308 309 309 309 308 307 306 312 318 315 314 314 315 316 315 317 316 318 317 319 320 320 321 320 322 321 320 318 319
304 304 304 304 305 306 304 305 303 306 308 307 306 305 306 307 309 309 309 309 309 309 306 307 314 314 313 315 315 314 315 314 313 315 317 319 319 319 320 320 321 321 320 319 319
304 304 304 304 304 304 304 304 304 307 306 306 306 306 306 306 309 308 308 309 307 305 306 306 312 314 311 313 314 314 315 314 313 316 315 315 317 318 319 319 320 320 320 320 318
304 304 304 304 304 304 304 303 304 305 307 305 305 306 306 308 309 310 308 309 307 306 305 307 310 316 314 314 313 313 314 314 316 318 318 317 318 320 320 319 319 319 319 319 317
304 304 304 304 303 303 304 300 305 303 305 305 306 307 307 308 308 309 307 308 307 308 307 309 310 311 315 315 315 316 315 316 317 319 320 319 319 319 319 319 319 320 320 320 319
303 304 304 303 303 304 302 302 303 304 304 307 307 307 307 308 309 309 310 309 308 307 307 308 310 311 316 317 319 319 318 317 318 319 319 319 319 319 320 319 320 321 320 320 319
303 304 304 304 303 303 303 302 304 304 307 308 309 308 308 307 310 308 310 310 310 308 307 307 309 311 314 318 319 319 319 320 321 318 318 319 322 319 320 321 321 320 318 319 321
303 304 304 303 303 303 303 303 304 304 306 304 310 309 309 308 309 309 308 310 313 310 307 308 308 309 312 316 319 318 318 321 319 317 317 318 321 320 319 321 321 320 319 317 320
304 304 305 303 303 303 303 303 303 309 309 307 306 306 306 311 311 311 308 308 312 311 309 309 311 309 311 313 317 316 316 316 317 316 320 319 321 321 321 321 321 320 321 321 322
302 302 303 303 303 303 303 302 307 308 306 307 307 306 306 307 310 312 313 308 311 315 313 310 310 311 311 312 313 314 313 314 316 319 321 319 321 320 320 320 321 321 319 321 322
301 301 302 303 303 303 303 304 307 305 305 307 306 305 306 307 306 308 312 313 309 311 314 314 312 311 312 311 312 313 313 315 317 321 323 320 324 322 320 321 320 320 320 321 322
301 301 302 303 303 303 305 304 303 307 305 307 305 306 307 305 306 307 308 314 313 312 312 314 315 313 313 312 313 312 314 313 316 320 322 322 321 320 321 321 321 321 323 322 322
301 300 301 304 303 304 305 302 304 304 304 304 307 306 306 305 307 307 308 312 312 311 312 312 314 314 313 313 312 312 313 314 314 321 325 323 324 323 323 323 325 325 323 322 321
300 298 302 304 304 304 300 302 304 303 304 304 307 306 305 306 308 306 307 310 311 309 311 313 312 314 313 313 312 310 314 312 312 316 321 323 323 319 322 322 324 324 322 322 322
298 296 301 305 306 304 301 304 305 304 304 304 305 306 306 307 308 307 306 308 309 310 309 311 312 314 314 312 313 312 310 311 316 316 316 319 321 319 321 320 322 323 322 321 321
300 298 301 301 305 302 304 305 305 305 305 305 306 305 304 305 307 307 308 310 307 310 309 313 314 315 314 315 313 313 312 312 313 312 317 317 318 318 319 320 322 322 322 321 321
297 298 297 301 300 304 304 303 304 304 305 304 303 303 303 304 304 305 307 307 307 307 310 311 311 316 316 315 313 314 313 312 310 312 316 318 318 321 322 321 321 323 322 321 322
294 295 301 303 300 301 302 302 305 307 306 305 305 304 306 307 308 308 309 310 309 308 311 310 310 314 314 316 317 315 314 314 313 313 314 318 320 320 320 321 322 322 321 322 322
294 302 301 300 300 301 300 304 305 305 307 307 307 307 306 306 307 309 309 311 311 310 312 311 310 311 312 315 317 318 314 314 314 313 313 315 315 317 319 321 325 324 323 324 323
300 301 301 302 301 300 298 303 304 303 304 306 307 307 306 305 306 307 307 307 309 310 311 312 310 309 311 311 315 318 317 315 314 314 314 316 316 318 322 323 324 324 324 324 324

GFSSW_925_thetae_033.txt.gz
Theta_e
308 308 307 306 306 307 307 308 309 309 310 311 311 311 311 308 305 305 306 309 311 310 311 320 322 325 326 327 327 325 330 328 326 328 327 329 330 327 326 329 328 327 327 327 324
308 308 308 308 308 306 306 306 307 309 309 309 310 310 310 309 309 309 308 308 309 309 321 320 322 325 327 328 330 331 331 328 326 327 328 328 329 329 329 330 330 329 327 324 324
307 308 308 308 308 308 307 307 306 307 307 309 308 309 309 309 306 306 314 312 311 307 315 317 321 326 327 328 329 330 332 329 328 327 328 328 329 329 329 329 329 330 330 330 327
306 307 307 306 307 307 307 308 308 308 307 307 308 308 308 308 308 310 312 308 308 315 312 312 323 325 325 329 329 330 330 330 329 328 327 328 328 329 330 330 329 329 329 329 328
306 306 306 307 307 307 307 306 307 307 307 307 307 308 308 311 308 313 316 310 308 320 312 314 322 322 322 325 326 330 329 329 330 330 329 329 329 329 328 328 328 329 329 328 327
305 305 306 306 306 306 306 306 306 306 307 308 307 307 307 308 307 308 308 307 306 314 315 312 314 320 321 324 325 326 326 327 328 328 328 328 327 326 326 326 325 326 327 327 327
304 304 305 305 306 306 306 306 306 305 306 308 307 306 307 307 306 309 308 308 307 305 309 312 314 316 318 319 319 321 323 323 322 324 323 321 320 320 321 322 324 325 325 326 327
304 303 304 305 305 306 306 305 305 306 307 309 308 307 306 305 306 307 308 309 308 307 308 308 315 316 317 316 317 318 318 320 320 319 319 319 320 320 321 322 323 324 325 326 326
304 304 304 305 305 305 303 303 302 306 307 308 308 306 307 305 306 308 309 309 310 310 309 307 311 317 317 318 319 319 321 320 319 317 318 320 320 320 320 321 322 323 324 324 326
304 304 304 304 304 304 304 302 306 306 306 306 306 305 304 306 309 308 310 310 310 309 309 309 312 314 316 318 322 320 319 319 318 318 317 318 320 320 320 322 323 324 325 326 326
304 304 304 303 304 304 303 303 307 307 305 307 306 306 305 306 307 307 309 310 310 309 310 310 311 316 315 317 318 321 320 321 319 317 318 320 322 322 322 322 323 324 325 326 327
304 304 304 304 304 303 302 303 303 303 306 305 305 306 306 307 307 307 307 310 310 309 310 309 312 314 315 315 315 315 316 317 317 317 319 321 322 322 322 321 323 324 325 326 327
304 304 304 304 303 303 302 303 303 304 306 307 306 307 307 307 308 308 309 309 310 310 310 312 313 312 313 316 315 315 316 317 317 321 321 321 322 321 322 323 322 324 326 327 328
304 304 304 304 303 302 303 303 303 303 308 306 308 308 308 308 310 308 307 309 309 311 310 311 312 311 312 314 316 318 316 316 317 319 322 321 325 323 321 321 324 327 328 327 325
301 302 303 303 303 303 303 302 303 303 303 304 310 308 308 309 309 310 308 309 311 311 310 311 310 311 312 313 316 317 318 318 318 320 322 321 321 322 323 321 322 323 328 327 327
301 303 303 303 302 302 302 303 303 308 303 306 307 307 307 308 308 309 309 308 310 313 311 312 310 311 312 313 315 317 318 321 321 321 323 322 320 323 321 321 322 324 327 327 328
301 300 301 302 303 302 303 304 306 306 303 307 307 306 306 308 309 307 311 309 311 314 315 312 311 311 311 313 315 318 319 322 322 323 325 321 322 322 322 323 325 326 327 328 329
301 301 302 302 303 303 303 306 305 302 304 306 306 305 305 306 307 305 309 315 309 313 316 316 315 312 311 312 315 318 320 321 325 325 322 321 320 320 323 323 324 325 327 328 329
300 301 303 303 303 302 305 304 302 307 305 305 305 304 306 305 306 305 309 317 313 309 312 317 316 314 312 313 314 317 319 318 319 322 321 322 324 325 326 326 327 326 326 329 330
300 300 302 304 303 303 305 303 304 304 304 304 306 306 306 305 306 306 308 311 313 312 313 315 317 315 313 312 315 317 318 317 318 319 320 324 326 323 327 328 328 329 329 330 329
299 303 301 304 304 305 305 304 304 304 304 304 305 306 304 304 308 307 305 307 311 312 311 314 317 316 314 313 314 314 317 317 317 319 318 318 321 329 328 330 330 331 331 330 330
300 304 301 304 305 305 305 305 304 305 304 305 305 305 306 306 307 308 307 308 309 309 314 313 318 318 316 315 315 315 316 318 317 320 318 320 320 323 328 327 329 331 330 329 329
300 301 300 301 305 305 303 303 305 305 305 306 305 305 305 305 305 307 308 308 309 309 310 313 318 318 318 316 315 317 315 317 318 321 319 318 321 323 324 326 327 330 329 328 329
301 303 303 304 302 303 301 303 304 304 306 306 306 305 305 306 305 305 306 306 309 307 310 311 316 318 318 317 318 316 315 316 318 319 318 318 318 321 324 324 327 329 330 329 329
300 302 302 302 302 301 301 302 305 305 305 306 307 307 308 307 307 307 307 308 310 309 311 312 314 314 315 314 316 319 316 315 316 317 317 319 319 320 323 322 327 329 329 329 330
303 303 302 302 301 301 301 304 305 305 304 305 307 306 307 308 307 308 308 310 313 311 311 312 315 313 315 315 316 318 319 316 315 316 316 318 320 321 321 324 327 329 329 330 330
299 301 302 302 301 301 302 303 303 303 304 304 306 307 307 307 307 307 307 308 309 311 313 312 313 315 318 314 316 318 318 319 317 316 316 317 318 319 321 323 325 331 330 330 330

GFSSW_925_thetae_036.txt.gz
Theta_e
309 309 308 308 308 308 308 307 307 308 309 310 310 311 309 308 309 312 311 310 312 311 313 325 323 325 327 329 330 330 331 331 330 329 330 331 331 331 331 331 331 331 332 331 330
307 307 308 307 308 308 308 308 308 308 308 308 309 309 308 307 313 313 311 308 308 309 312 322 322 323 329 330 331 332 332 330 330 330 330 330 331 330 331 331 331 330 331 330 331
307 307 307 307 307 307 307 307 308 308 308 308 307 308 308 309 313 312 314 310 311 308 310 318 318 324 327 328 331 332 333 332 332 330 330 330 331 330 330 331 330 330 330 331 331
305 306 306 306 307 307 307 307 307 307 308 308 308 307 307 311 312 318 311 310 312 321 312 316 319 321 323 326 329 332 332 332 331 331 331 331 331 331 331 331 330 330 329 329 330
304 305 305 305 306 307 306 306 307 307 307 307 307 307 309 312 311 310 314 313 312 321 315 318 319 322 326 325 326 330 331 331 331 331 331 331 332 332 331 330 330 329 328 328 328
304 304 305 306 305 306 306 306 305 305 306 307 307 307 309 310 309 310 311 311 311 314 319 317 318 321 327 327 327 327 327 329 330 331 332 331 331 330 330 329 327 326 326 326 326
304 304 305 305 305 306 306 306 305 301 303 307 308 308 310 309 307 308 308 310 311 310 315 317 316 320 325 325 325 325 327 327 329 329 330 330 330 329 327 325 325 324 326 325 324
303 304 304 305 305 306 306 305 303 302 303 308 309 309 309 306 306 307 308 309 310 310 310 311 314 317 319 321 321 324 326 328 327 327 327 326 328 327 326 325 325 325 325 324 324
304 303 304 304 305 305 304 303 302 305 306 309 310 310 308 306 307 307 308 309 310 312 311 310 311 316 319 320 323 324 327 327 327 325 324 324 327 326 325 325 325 326 327 325 325
305 304 303 304 305 304 303 303 306 307 308 309 308 308 307 305 308 310 309 311 312 313 314 312 313 316 318 322 328 326 326 327 329 327 322 324 325 325 324 325 326 327 326 326 326
305 304 304 304 304 304 304 306 308 309 307 308 307 309 307 306 306 307 310 312 313 313 315 313 313 317 319 321 323 325 327 328 327 326 325 326 326 326 326 327 328 328 327 326 329
304 304 304 304 304 303 304 306 306 306 307 306 306 306 305 305 307 308 307 311 314 314 314 315 314 317 318 319 320 323 325 327 327 326 327 325 325 328 328 328 328 327 326 328 330
302 303 303 304 303 305 305 305 305 305 308 306 306 307 307 307 308 308 308 309 313 315 314 316 316 314 316 319 320 321 323 325 326 325 325 324 325 327 328 328 327 326 326 325 329
303 303 303 303 305 305 306 305 304 306 309 305 309 310 310 310 312 310 310 308 311 314 314 315 316 316 315 316 319 321 320 320 320 322 324 323 329 329 329 328 328 327 326 327 331
304 304 303 302 304 305 304 305 305 306 305 306 311 310 309 311 311 312 311 311 309 313 314 315 315 316 317 316 317 318 318 319 320 321 323 323 326 328 328 328 328 327 326 328 332
303 302 302 304 303 304 304 305 306 310 305 305 308 308 308 309 310 310 311 312 310 309 314 315 314 315 317 316 316 317 318 320 321 322 326 325 327 329 330 330 329 327 325 330 334
302 301 303 304 305 304 305 306 309 306 304 305 308 307 307 307 308 310 310 313 313 310 313 316 315 314 315 316 316 317 320 324 326 328 329 327 329 330 328 327 325 325 327 333 334
300 303 304 305 305 304 305 308 305 303 304 306 306 305 305 307 307 306 308 315 314 310 312 317 318 315 314 315 317 318 321 322 326 331 330 328 330 329 326 326 326 325 325 332 334
302 305 306 305 304 304 308 307 305 305 305 305 305 304 304 305 305 306 309 310 315 312 313 317 319 316 315 315 317 318 323 322 327 328 326 330 328 325 324 325 324 327 326 332 335
303 305 305 305 305 306 308 305 305 305 305 305 306 304 306 305 305 307 307 311 311 313 314 317 320 319 316 315 317 320 320 324 324 329 330 326 326 326 326 326 325 328 330 333 335
304 306 304 305 303 306 309 307 306 305 305 306 306 305 305 307 305 306 307 309 309 310 312 316 318 321 318 316 317 318 321 322 323 324 328 329 326 324 327 325 328 331 332 336 335
304 308 303 306 308 307 307 304 305 306 306 308 307 307 307 306 306 306 308 310 309 309 313 315 319 323 319 318 318 318 319 322 323 325 324 325 323 327 328 330 330 330 333 336 335
306 305 303 305 308 306 304 304 305 306 305 308 307 306 306 307 308 306 307 310 309 310 313 313 319 322 321 319 317 319 319 321 322 325 325 324 321 321 328 329 332 334 335 335 334
306 309 306 305 304 303 303 305 305 304 305 306 308 308 308 308 307 307 306 307 309 311 309 312 317 320 322 320 319 319 318 320 322 323 323 322 320 323 328 329 332 334 334 334 335
305 306 304 307 306 302 303 303 305 306 305 306 307 308 308 309 308 307 307 308 309 311 311 315 317 318 319 319 318 321 318 318 320 321 322 320 320 320 325 327 330 331 334 334 335
305 304 303 304 302 303 304 306 306 306 305 306 307 307 307 307 308 309 308 309 312 308 315 315 320 317 319 317 318 320 320 319 319 320 320 320 320 320 321 322 322 331 333 334 335
302 303 303 304 304 304 306 304 304 304 305 305 307 308 310 308 308 308 308 309 310 312 313 315 317 319 318 317 319 321 320 320 319 319 319 320 321 320 321 323 323 327 331 333 335

GFSSW_925_thetae_042.txt.gz
Theta_e
308 308 308 308 308 308 309 308 309 309 309 309 309 310 307 302 301 310 314 315 316 315 315 326 331 329 333 335 332 328 328 331 331 332 332 332 331 331 331 332 333 332 332 332 331
306 306 307 307 308 308 308 308 308 309 309 309 305 304 302 305 310 312 311 313 317 315 315 319 324 327 331 330 331 328 329 330 331 331 333 332 332 332 332 333 333 332 332 331 331
306 306 306 307 308 307 307 308 308 309 309 309 307 302 301 306 314 314 315 314 313 315 314 317 321 327 326 328 330 331 331 329 331 332 332 332 332 332 332 333 333 333 332 332 333
306 306 306 307 307 307 307 307 308 308 308 308 308 308 302 311 314 316 311 314 312 313 313 314 317 322 329 328 327 332 332 331 332 333 333 333 332 333 333 333 333 334 333 332 333
304 305 305 304 306 307 306 306 305 305 305 305 308 309 309 310 312 314 312 314 313 314 314 315 316 318 321 327 328 328 328 330 332 333 332 333 333 334 333 333 333 333 334 334 333
305 306 305 305 304 304 304 304 303 304 304 304 308 308 310 310 309 311 313 314 314 316 318 320 320 320 321 323 327 328 328 329 330 331 331 331 332 332 333 334 333 334 334 333 333
304 304 304 305 305 304 303 303 303 303 304 308 308 309 310 309 308 310 310 312 314 315 317 318 322 321 323 323 324 327 330 330 330 330 331 331 332 332 332 332 332 333 334 333 334
304 304 302 302 303 303 302 302 302 302 307 306 309 310 310 308 309 310 310 310 310 311 312 314 316 318 321 322 323 326 328 331 330 330 331 331 333 332 331 331 332 333 333 334 333
306 305 304 302 301 301 302 301 301 304 306 307 311 311 313 310 311 310 309 309 309 310 311 313 315 318 319 322 324 325 329 329 329 329 329 331 333 332 332 332 333 333 331 332 332
306 305 305 304 303 301 301 303 306 308 309 311 311 312 313 312 309 310 311 312 311 310 311 314 315 316 318 320 325 325 326 326 328 329 329 331 331 331 331 331 332 332 331 331 332
304 305 306 305 303 301 304 310 310 311 312 315 314 313 312 310 309 308 308 309 313 315 313 314 316 317 318 318 320 323 325 325 327 327 328 330 330 331 332 332 332 332 331 332 333
303 303 305 303 301 301 305 311 309 308 308 309 308 308 307 307 307 308 308 308 309 315 315 314 318 318 317 318 318 320 323 325 326 324 326 329 331 332 332 332 332 332 332 332 333
302 302 303 303 301 307 309 308 307 307 309 308 308 308 308 309 308 308 308 308 307 310 313 315 316 316 318 317 318 320 322 324 324 323 325 328 330 332 331 332 332 332 332 332 332
302 302 301 301 306 307 307 307 306 307 309 308 308 309 309 309 309 310 311 309 308 308 310 313 315 314 317 319 318 321 319 320 322 323 328 326 332 334 332 333 333 332 332 331 331
302 301 304 303 307 308 307 307 307 307 313 310 311 312 311 312 314 312 313 311 308 308 308 309 312 316 315 318 319 320 319 320 321 323 326 326 328 330 330 332 332 331 331 331 331
302 302 305 307 308 308 307 306 307 311 314 310 310 311 311 311 312 313 313 313 312 310 310 309 310 312 317 316 317 319 319 319 321 323 327 328 328 329 329 330 329 329 329 330 331
302 303 306 307 308 307 307 307 311 314 310 309 308 307 307 308 308 311 311 312 313 317 316 312 311 310 312 315 317 318 323 324 324 325 327 326 327 329 328 329 329 329 330 331 333
302 305 307 308 307 307 307 309 313 307 306 307 306 306 305 306 306 307 310 310 309 310 316 320 319 310 311 314 318 318 323 323 324 325 325 323 327 327 328 329 329 329 331 333 334
304 310 309 308 308 308 309 316 308 307 307 308 308 310 309 308 308 309 307 309 310 314 318 317 319 316 311 314 316 319 320 322 324 323 324 325 327 328 329 330 330 331 333 334 341
305 310 310 308 309 309 311 312 307 307 307 308 309 311 310 309 309 310 310 312 312 311 313 313 317 316 317 312 315 318 319 322 324 325 328 325 328 330 333 333 331 332 333 334 341
308 312 309 308 310 312 314 310 307 306 307 307 309 309 310 312 311 310 309 310 312 311 311 313 316 317 318 315 315 319 319 321 325 324 327 329 328 335 333 330 331 334 332 335 341
309 312 308 308 312 313 311 308 307 307 307 306 307 307 311 311 311 312 311 312 311 310 310 312 318 322 319 318 315 319 319 321 325 327 325 327 328 331 330 329 331 332 331 338 340
312 310 309 308 313 312 308 307 307 306 309 310 307 307 309 310 313 312 311 311 311 310 312 312 318 320 319 319 321 322 320 322 325 329 329 327 329 330 327 329 329 333 329 340 339
312 313 311 310 310 310 310 308 307 308 308 308 307 308 310 310 309 310 310 312 311 311 313 313 314 316 323 322 323 327 324 321 324 327 326 328 327 327 328 331 331 334 339 339 339
311 311 309 313 310 309 308 309 309 309 308 307 308 308 310 311 310 310 311 311 312 312 313 315 316 315 316 315 319 323 324 322 323 326 326 328 328 327 331 333 337 340 341 339 339
310 308 307 308 308 310 309 309 310 308 307 308 308 308 308 309 311 312 311 311 311 313 312 314 317 316 319 316 316 319 320 323 322 322 326 328 329 330 330 329 335 337 338 339 338
307 306 306 307 308 310 310 308 309 308 308 307 308 308 309 309 310 310 310 311 311 311 313 314 318 322 320 316 319 321 323 325 325 324 326 328 330 330 330 326 331 337 338 338 338

GFSSW_925_thetae_045.txt.gz
Theta_e
306 307 307 307 308 308 308 308 307 306 305 306 308 307 304 305 302 307 311 309 314 314 315 321 322 329 327 329 329 331 329 326 326 327 329 329 329 330 330 330 330 331 330 330 332
306 307 307 307 307 307 308 308 308 308 306 303 302 301 302 303 308 311 308 307 310 315 315 315 321 330 331 331 332 334 329 327 325 326 328 329 330 330 331 331 331 332 331 331 331
306 306 307 307 307 306 306 307 308 308 308 308 303 301 300 304 313 312 314 314 311 313 315 316 318 321 326 326 331 331 331 327 326 326 328 329 331 332 332 331 331 332 331 329 329
307 307 307 307 307 306 303 303 303 305 307 307 304 302 301 308 311 313 312 313 314 312 315 315 314 316 319 326 327 329 329 329 327 328 328 329 331 332 331 330 331 331 331 331 329
306 306 306 306 305 304 304 303 303 303 303 303 306 308 307 309 308 308 311 314 313 314 314 314 313 313 314 321 325 325 325 327 330 329 329 330 331 331 330 330 330 330 330 329 329
305 305 304 303 304 304 302 302 303 303 302 303 308 308 309 309 304 305 308 312 315 313 313 313 313 314 314 316 318 323 326 326 325 326 328 329 329 329 330 329 329 328 328 328 328
306 305 304 303 302 301 301 301 301 301 306 306 309 309 308 308 302 304 307 307 309 312 315 317 315 316 317 316 318 320 321 322 324 326 326 327 328 328 328 328 329 328 328 327 328
306 305 305 304 303 302 301 300 300 300 304 307 310 309 309 303 306 308 309 309 309 309 310 312 313 312 314 317 319 321 321 322 322 324 327 327 329 328 328 328 329 328 328 328 327
306 305 305 303 303 301 300 300 302 303 306 307 310 310 310 309 310 309 309 309 309 309 310 310 311 312 314 316 317 319 322 321 323 324 326 327 328 328 327 328 328 328 328 328 326
305 305 303 301 302 301 301 305 309 309 310 311 311 312 311 312 312 311 311 309 311 310 309 309 310 312 311 314 319 321 322 322 322 324 325 326 326 326 326 326 328 327 328 328 327
303 302 302 301 300 300 302 307 307 310 312 309 310 313 314 313 312 309 309 309 309 313 308 308 309 313 313 314 316 319 322 323 323 323 324 324 324 324 325 325 325 326 326 326 326
301 301 301 300 302 304 307 308 309 307 306 307 307 307 307 308 307 307 307 307 307 308 313 313 309 311 314 314 315 316 317 318 321 323 322 323 324 325 325 325 325 326 326 327 326
300 301 301 303 306 309 308 307 307 307 306 307 307 307 307 307 307 307 307 306 306 306 307 313 313 312 314 315 316 316 316 316 317 320 321 321 321 321 323 325 326 327 326 327 326
300 301 302 306 308 308 308 307 306 307 306 308 309 308 307 306 307 308 308 307 307 306 306 306 309 314 313 314 316 316 317 317 319 319 320 320 321 321 322 324 326 327 326 326 326
300 302 304 306 307 309 308 306 307 307 314 311 311 310 310 310 312 313 309 309 308 308 306 306 307 309 313 314 315 316 317 317 318 318 318 319 320 321 324 326 326 327 326 326 325
300 302 303 307 308 307 307 307 307 310 314 311 308 307 307 309 310 312 313 314 312 308 307 307 308 307 307 309 314 314 317 317 316 316 318 318 320 321 321 322 324 325 324 324 322
301 302 303 305 308 308 307 307 308 312 308 307 307 308 307 307 306 309 311 314 315 316 314 311 310 310 309 308 309 312 313 315 318 318 318 317 321 322 322 323 324 324 324 323 324
301 305 306 307 309 308 308 309 310 308 306 306 307 309 309 309 309 309 309 307 311 313 314 314 317 316 314 309 308 309 313 315 319 320 318 319 321 320 322 323 323 324 323 323 325
303 306 310 310 309 308 308 311 311 308 305 306 308 309 310 309 310 310 309 312 311 315 315 316 314 312 311 311 309 308 310 314 315 318 318 319 319 319 319 320 322 323 325 336 336
303 306 311 309 308 309 310 311 311 309 306 306 308 309 310 309 311 311 311 312 312 313 311 312 314 310 309 311 315 315 311 315 315 318 321 320 320 320 320 323 323 326 327 337 338
306 311 310 309 309 311 312 311 309 306 306 308 308 307 310 311 311 310 312 311 312 311 311 311 312 313 312 312 316 314 310 311 314 316 320 322 320 320 329 329 325 327 326 338 337
306 312 308 308 310 311 311 308 308 308 309 309 310 309 310 310 311 312 312 311 311 311 309 312 314 316 313 314 315 315 313 311 314 318 318 320 321 320 324 328 326 327 327 336 336
306 311 310 309 311 309 309 309 308 308 309 309 308 307 310 310 312 311 311 311 311 312 313 312 313 316 315 314 315 319 321 315 316 317 318 320 321 320 324 327 327 324 329 337 336
308 312 309 309 308 310 310 310 308 308 310 307 307 307 310 311 308 310 310 311 311 311 313 313 312 314 316 316 316 319 317 319 320 320 319 320 320 320 326 326 327 330 336 336 337
309 310 308 308 307 308 310 310 308 309 308 307 308 308 308 308 308 310 310 310 310 312 312 313 314 312 311 312 314 317 317 317 318 319 322 319 321 319 327 329 336 334 336 336 337
309 308 307 307 307 309 309 309 308 308 307 308 309 308 307 308 309 311 310 309 310 311 314 313 313 314 316 316 316 318 316 316 317 318 320 321 321 328 327 334 337 336 336 337 337
305 306 307 307 308 308 310 311 310 309 307 307 307 309 310 310 309 308 308 308 309 309 310 312 315 318 319 318 316 317 314 315 316 318 321 323 328 327 328 330 334 336 335 336 336

GFSSW_925_thetae_048.txt.gz
Theta_e
306 307 307 307 307 307 306 305 304 302 304 304 304 306 306 304 301 302 308 306 309 311 313 321 322 320 322 326 327 326 330 327 326 327 327 325 326 328 329 329 330 330 328 329 331
307 307 307 307 307 307 306 306 304 303 301 301 301 301 302 302 305 309 305 306 307 311 312 314 317 323 328 327 328 329 331 331 325 325 325 325 325 327 329 330 330 330 330 330 332
307 307 307 307 307 307 307 307 307 306 304 302 302 302 303 302 310 310 313 313 312 307 313 316 315 318 328 329 329 330 333 332 330 327 325 325 326 327 329 330 330 330 330 329 329
307 306 306 306 305 305 305 307 307 307 308 306 305 306 304 305 300 312 310 312 313 314 316 315 313 315 316 324 328 330 332 333 333 330 327 326 326 327 327 329 330 330 330 329 328
306 307 306 306 306 305 303 301 300 302 305 307 308 309 308 308 308 306 306 306 307 318 316 314 313 312 312 314 320 325 327 328 328 329 328 327 327 327 328 329 329 328 328 328 327
306 305 303 303 303 302 302 302 302 301 300 303 308 309 307 307 301 301 302 306 308 311 314 313 312 311 312 312 314 318 322 324 323 323 326 329 329 329 329 329 328 328 325 324 325
305 303 302 301 301 301 300 300 300 300 303 307 308 309 308 307 302 301 304 304 305 306 309 312 313 313 312 313 313 315 316 318 319 319 321 324 325 326 327 326 327 327 326 325 324
304 303 302 301 302 301 300 300 304 306 308 309 309 310 308 306 304 304 304 306 308 309 308 309 310 312 312 313 315 318 318 319 320 320 321 322 325 326 325 325 326 325 326 326 326
304 303 304 305 305 304 300 303 307 309 308 309 310 309 309 309 310 311 309 307 308 309 309 309 310 309 312 313 315 314 321 321 321 321 322 322 324 324 325 325 324 324 325 326 326
302 301 304 304 304 304 302 307 308 311 311 311 310 311 310 308 311 312 311 308 309 308 309 308 306 309 308 312 318 317 318 320 321 321 321 322 323 323 323 324 324 324 324 324 325
300 300 301 302 304 306 307 307 306 305 307 306 306 307 309 307 307 310 309 308 310 309 307 307 306 308 309 312 314 317 319 320 321 320 321 321 323 323 323 321 322 323 323 323 324
299 300 301 304 306 307 308 307 307 305 305 306 306 306 306 306 306 307 307 305 306 307 309 308 307 308 310 312 312 314 315 316 316 317 320 321 322 322 322 322 322 322 322 321 322
300 300 302 305 307 307 307 307 306 306 305 306 309 310 308 307 307 307 306 306 305 304 305 312 312 311 309 310 313 313 313 314 315 315 315 315 316 318 319 319 319 321 322 322 322
301 301 302 304 307 307 307 307 306 307 307 309 309 308 309 306 306 307 307 307 305 304 304 304 305 307 312 309 312 313 314 314 315 316 316 315 316 316 318 318 319 319 320 321 323
301 301 301 304 306 306 307 307 307 305 307 308 309 308 308 307 309 312 312 307 307 306 304 305 305 306 308 311 312 312 314 315 316 315 315 316 316 318 317 319 319 319 321 321 322
301 301 302 305 305 307 308 307 306 306 307 308 307 308 309 309 309 310 312 312 312 310 306 305 305 305 305 306 307 308 312 314 314 314 315 315 316 317 317 317 317 321 320 321 320
301 301 303 304 306 308 308 305 304 306 307 305 306 307 309 309 310 309 311 313 315 315 314 312 308 306 307 306 306 306 307 311 313 315 317 315 315 317 317 318 317 317 319 320 319
301 302 307 309 309 308 307 304 306 308 308 307 306 307 308 309 309 310 310 311 312 313 313 314 314 315 314 312 308 305 305 311 314 317 317 315 317 316 317 317 317 318 319 320 319
303 305 307 310 308 308 304 305 309 309 309 307 307 308 309 308 310 309 310 311 313 314 312 313 312 310 309 309 309 309 306 307 310 312 314 316 316 317 317 316 317 317 319 319 326
304 306 308 310 309 308 305 310 311 309 308 308 308 309 309 309 310 310 310 311 311 312 310 311 312 311 309 309 309 310 311 308 308 314 315 316 318 318 317 317 317 317 317 330 335
306 306 309 309 309 303 302 307 308 307 308 309 309 309 309 310 310 310 311 311 311 311 311 310 311 311 311 311 311 313 312 310 308 311 316 316 317 315 316 317 317 321 321 337 337
303 308 309 307 305 306 307 309 309 308 308 310 309 308 310 310 309 311 311 311 311 311 313 309 312 314 311 309 309 312 314 313 308 309 314 315 316 317 315 315 318 321 336 336 337
301 304 309 308 309 303 306 308 309 308 309 309 307 308 309 309 310 310 309 310 311 310 312 312 310 312 308 311 314 314 319 316 315 308 311 315 317 315 316 317 318 323 336 336 336
303 307 303 302 303 305 307 309 309 308 309 306 306 307 308 308 307 308 308 309 310 311 312 312 312 310 310 310 313 314 315 315 317 320 314 313 314 316 316 316 317 326 335 336 336
303 302 304 302 304 305 306 308 309 311 307 306 306 307 307 307 308 307 309 309 309 310 311 311 313 313 312 311 311 312 313 314 317 317 320 319 318 317 317 316 317 326 335 337 337
302 304 304 304 305 307 306 310 310 310 310 308 307 307 306 308 309 310 309 309 310 309 311 312 315 316 315 313 314 315 315 316 316 315 316 317 318 317 318 329 332 333 336 337 337
302 304 305 306 305 306 307 309 311 309 309 308 307 307 308 309 309 308 308 307 307 307 310 310 311 314 316 316 317 318 317 316 313 315 317 318 317 318 332 335 333 334 337 337 337